Location: Gro�wechsungen
(51.4926°N, 10.6901°E)
Time: 18:58:11
(UTC+00:00)

Cosmos 2278 Rocket - Pass Details

Date: 18 September 2020
Orbit: 841 x 845 km, 71.0° (Epoch: 22 October)

Event Time Altitude Azimuth Distance (km) Brightness Sun altitude
Exits shadow 23:04:21 26° 320° (NW) 1,607 4.0 -37.1°
Maximum altitude 23:04:21 26° 320° (NW) 1,607 4.0 -37.1°
Drops below altitude 10° 23:09:04 10° 17° (NNE) 2,473 5.3 -37.1°
Sets 23:11:57 0° 30° (NNE) 3,411 6.1 -37.1°
